Home   Weather   Minden   Past weeks
Flag for Germany

Past Weather in Minden, North Rhine-Westphalia, Germany — Yesterday and Last 2 Weeks

Now
54 °F

Passing clouds.


Feels Like: 50 °F
Forecast: 64 / 45 °F
Wind: 10 mph from Southwest

Location: Bueckeburg

Current Time: Oct 22, 2019 at 4:24:51 am

Latest Report: Oct 22, 2019 at 3:20 am


Visibility: N/A

Pressure: 30.15 "Hg

Humidity: 77%

Dew Point: 46 °F

Location of MindenLocation

Past Weather in Minden — Graph

°F

Minden Temperature Yesterday

Maximum temperature yesterday: 68 °F (at 2:20 pm)
Minimum temperature yesterday: 54 °F (at 6:09 am)
Average temperature yesterday: 58 °F

High & Low Weather Summary for the Past Weeks

 TemperatureHumidityPressure
High72 °F (Oct 13, 4:20 pm)100% (Oct 8, 11:08 am)30.15 "Hg (Oct 8, 11:08 am)
Low36 °F (Oct 7, 7:20 am)54% (Oct 7, 12:20 pm)29.62 "Hg (Oct 9, 5:01 pm)
Average57 °F82%29.80 "Hg
* Reported Oct 7 2:20 am — Oct 22 2:20 am, Minden. Weather by CustomWeather, © 2019

Note: Actual official high and low records may vary slightly from our data, if they occured in-between our weather recording intervals... More about our weather records

Advertising

Minden Weather History for the Previous 24 Hours

Scroll right to see more
 ConditionsComfort  
Time TempWeatherWind HumidityBarometerVisibility
2:20 am
Tue, Oct 22
54 °FPassing clouds.13 mph77%30.15 "HgN/A
1:20 am55 °FPassing clouds.12 mph72%30.15 "HgN/A
12:20 am55 °FPassing clouds.9 mph72%30.15 "HgN/A
11:20 pm
Mon, Oct 21
54 °FPassing clouds.9 mph77%30.15 "HgN/A
10:20 pm55 °FPassing clouds.8 mph77%30.12 "HgN/A
9:20 pm54 °FPassing clouds.7 mph88%30.12 "HgN/A
9:00 pm55 °FPassing clouds.7 mph88%30.12 "HgN/A
8:36 pm59 °FPassing clouds.9 mph77%30.12 "HgN/A
7:20 pm59 °FPassing clouds.7 mph72%30.09 "HgN/A
6:20 pm63 °FPassing clouds.6 mph68%30.07 "HgN/A
5:20 pm66 °FPartly sunny.9 mph60%30.04 "HgN/A
4:20 pm66 °FBroken clouds.8 mph64%30.04 "HgN/A
3:20 pm66 °FPartly sunny.12 mph64%30.04 "HgN/A
2:20 pm68 °FScattered clouds.12 mph64%30.01 "HgN/A
1:20 pm64 °FScattered clouds.9 mph78%30.01 "HgN/A
12:20 pm61 °FScattered clouds.8 mph88%30.01 "HgN/A
11:20 am59 °FPartly sunny.10 mph88%29.98 "HgN/A
10:20 am57 °FBroken clouds.9 mph94%29.98 "HgN/A
9:20 am57 °FScattered showers. Scattered clouds.5 mph94%29.95 "HgN/A
8:49 am55 °FSprinkles. Partly sunny.7 mph100%29.95 "Hg6 mi
8:32 am55 °FSprinkles. Fog.3 mph100%29.95 "Hg2 mi
7:20 am55 °FFog.3 mph100%29.89 "Hg1 mi
7:08 am55 °FFog.3 mph100%29.89 "Hg1 mi
6:45 am55 °FFog.5 mph100%29.89 "Hg1 mi
6:20 am55 °FFog.6 mph100%29.89 "Hg1 mi
6:09 am54 °FFog.2 mph100%29.89 "Hg1 mi
5:31 am55 °FFog.3 mph100%29.86 "Hg2 mi
4:20 am55 °FFog.2 mph100%29.86 "Hg1 mi
Weather by CustomWeather, © 2019

See weather overview